Volver al catálogo

NanoDragon

ActivoCienciaSSO
NORAD 49398·PAYLOAD·🇯🇵 Japan

Lanzado Nov 9, 2021 desde Uchinoura Space Center

Loading…

Próximos Pases (próximas 24 horas)

TLE

ActualizadoSource: Space-Track

Época: Sep 14, 2026, 19:56 UTC

1 49398U 21102D   26257.83117342  .00009772  00000-0  31641-3 0  9993
2 49398  97.3114 298.8884 0007000 237.4559 122.6008 15.32210511267745

Sigue NanoDragon en tiempo real con AllMySat

Download on the App Store